| time (UTC) | temp F | wind direction | speed MPH | gust MPH | rain 1hr in | rain 24hr in | rain mn in | humidity % | barometer mb |
| 20260502201505 | 50 | 272 | 0.0 | 6.0 | 0.00 | 0.03 | 0.03 | 79 | 1010.8 |
| 20260502200020 | 55 | 266 | 0.0 | 3.0 | 0.00 | 0.03 | 0.03 | 68 | 1010.6 |
| 20260502194553 | 56 | 102 | 0.0 | 3.0 | 0.00 | 0.03 | 0.03 | 64 | 1010.4 |
| 20260502193034 | 57 | 217 | 0.0 | 2.0 | 0.00 | 0.03 | 0.03 | 65 | 1010.5 |
| 20260502191509 | 55 | 165 | 0.0 | 3.0 | 0.00 | 0.03 | 0.03 | 65 | 1010.7 |
| 20260502190023 | 54 | 217 | 0.0 | 3.0 | 0.00 | 0.03 | 0.03 | 69 | 1010.9 |
| 20260502184602 | 55 | 144 | 0.0 | 2.0 | 0.00 | 0.03 | 0.03 | 64 | 1011.0 |
| 20260502183059 | 56 | 223 | 1.0 | 5.0 | 0.00 | 0.03 | 0.03 | 65 | 1010.9 |
| 20260502181518 | 55 | 190 | 0.0 | 3.0 | 0.00 | 0.03 | 0.03 | 65 | 1011.0 |
| 20260502163052 | 52 | 219 | 0.0 | 2.0 | 0.00 | 0.03 | 0.03 | 69 | 1011.8 |
| 20260502161518 | 53 | 201 | 0.0 | 3.0 | 0.00 | 0.03 | 0.03 | 65 | 1011.8 |
| 20260502151522 | 53 | 91 | 0.0 | 1.0 | 0.00 | 0.03 | 0.03 | 70 | 1012.2 |
| 20260502123046 | 47 | 255 | 0.0 | 1.0 | 0.01 | 0.01 | 0.01 | 77 | 1013.4 |
| 20260502121522 | 48 | 89 | 0.0 | 3.0 | 0.00 | 0.00 | 0.00 | 75 | 1013.3 |
| 20260502114510 | 47 | 82 | 0.0 | 1.0 | 0.00 | 0.00 | 0.00 | 77 | 1012.9 |
| 20260502113048 | 47 | 83 | 0.0 | 1.0 | 0.00 | 0.00 | 0.00 | 78 | 1012.4 |
| 20260502111530 | 46 | 82 | 0.0 | 1.0 | 0.00 | 0.00 | 0.00 | 77 | 1012.1 |
| 20260502110040 | 46 | 263 | 0.0 | 1.0 | 0.00 | 0.00 | 0.00 | 77 | 1012.7 |
| 20260502104516 | 46 | 242 | 0.0 | 0.0 | 0.00 | 0.00 | 0.00 | 78 | 1012.3 |
| 20260502103055 | 46 | 242 | 0.0 | 0.0 | 0.00 | 0.00 | 0.00 | 78 | 1012.2 |
| 20260502101541 | 46 | 242 | 0.0 | 0.0 | 0.00 | 0.00 | 0.00 | 78 | 1012.0 |
| 20260502091532 | 46 | 242 | 0.0 | 1.0 | 0.00 | 0.00 | 0.00 | 77 | 1011.9 |
| 20260502071530 | 47 | 257 | 0.0 | 1.0 | 0.00 | 0.00 | 0.00 | 74 | 1011.8 |
| 20260502070037 | 47 | 257 | 0.0 | 0.0 | 0.00 | 0.00 | 0.00 | 73 | 1012.0 |
| 20260502064515 | 48 | 257 | 0.0 | 1.0 | 0.00 | 0.00 | 0.00 | 73 | 1011.8 |
| 20260502063050 | 48 | 101 | 0.0 | 1.0 | 0.00 | 0.00 | 0.00 | 73 | 1012.2 |
| 20260502061529 | 47 | 336 | 0.0 | 1.0 | 0.00 | 0.00 | 0.00 | 73 | 1012.3 |
| 20260502060040 | 47 | 269 | 0.0 | 2.0 | 0.00 | 0.00 | 0.00 | 72 | 1012.1 |
| 20260502054520 | 47 | 292 | 0.0 | 1.0 | 0.00 | 0.00 | 0.00 | 72 | 1012.1 |
| 20260502053112 | 48 | 43 | 0.0 | 0.0 | 0.00 | 0.00 | 0.00 | 71 | 1012.1 |
| 20260502051544 | 48 | 43 | 0.0 | 0.0 | 0.00 | 0.00 | 0.00 | 70 | 1012.1 |
| 20260502050054 | 47 | 53 | 0.0 | 0.0 | 0.00 | 0.00 | 0.00 | 70 | 1012.2 |
| 20260502044539 | 47 | 53 | 0.0 | 0.0 | 0.00 | 0.00 | 0.00 | 69 | 1012.2 |
| 20260502043013 | 48 | 53 | 0.0 | 0.0 | 0.00 | 0.00 | 0.00 | 69 | 1012.2 |
| 20260502041621 | 48 | 53 | 0.0 | 0.0 | 0.00 | 0.00 | 0.00 | 68 | 1012.3 |
| 20260502040100 | 49 | 53 | 0.0 | 1.0 | 0.00 | 0.00 | 0.00 | 66 | 1012.3 |
| 20260502034537 | 49 | 271 | 0.0 | 0.0 | 0.00 | 0.00 | 0.00 | 64 | 1012.3 |
| 20260502033013 | 49 | 24 | 0.0 | 1.0 | 0.00 | 0.00 | 0.00 | 64 | 1012.3 |
| 20260502031551 | 49 | 6 | 0.0 | 0.0 | 0.00 | 0.00 | 0.00 | 64 | 1012.5 |
| 20260502030004 | 48 | 6 | 0.0 | 1.0 | 0.00 | 0.00 | 0.00 | 63 | 1012.4 |
| 20260502024541 | 47 | 349 | 0.0 | 1.0 | 0.00 | 0.00 | 0.00 | 63 | 1012.3 |
| 20260502023019 | 46 | 291 | 0.0 | 2.0 | 0.00 | 0.00 | 0.00 | 66 | 1012.4 |
| 20260502021555 | 45 | 18 | 0.0 | 1.0 | 0.00 | 0.00 | 0.00 | 71 | 1012.5 |
| 20260502020007 | 44 | 213 | 0.0 | 1.0 | 0.00 | 0.00 | 0.00 | 73 | 1012.4 |
| 20260502014549 | 45 | 239 | 0.0 | 0.0 | 0.00 | 0.00 | 0.00 | 71 | 1012.0 |
| 20260502013045 | 46 | 239 | 0.0 | 0.0 | 0.00 | 0.00 | 0.00 | 69 | 1012.0 |
| 20260502011536 | 46 | 240 | 0.0 | 0.0 | 0.00 | 0.00 | 0.00 | 68 | 1011.9 |
| 20260502010041 | 47 | 240 | 0.0 | 0.0 | 0.00 | 0.00 | 0.00 | 63 | 1011.5 |
| 20260502004522 | 49 | 240 | 0.0 | 0.0 | 0.00 | 0.00 | 0.00 | 57 | 1011.2 |
| 20260502003055 | 51 | 239 | 0.0 | 0.0 | 0.00 | 0.00 | 0.00 | 53 | 1011.2 |
| 20260502001535 | 53 | 240 | 0.0 | 0.0 | 0.00 | 0.00 | 0.00 | 52 | 1010.9 |
| 20260502000045 | 54 | 240 | 0.0 | 0.0 | 0.00 | 0.00 | 0.00 | 47 | 1010.7 |
| 20260501234526 | 56 | 239 | 0.0 | 1.0 | 0.00 | 0.00 | 0.00 | 44 | 1010.5 |
| 20260501233107 | 57 | 256 | 0.0 | 1.0 | 0.00 | 0.00 | 0.00 | 43 | 1010.3 |
| 20260501231551 | 58 | 263 | 0.0 | 2.0 | 0.00 | 0.00 | 0.00 | 40 | 1009.9 |
| 20260501230049 | 59 | 271 | 0.0 | 4.0 | 0.00 | 0.00 | 0.00 | 38 | 1009.8 |
| 20260501224524 | 60 | 210 | 0.0 | 4.0 | 0.00 | 0.00 | 0.00 | 38 | 1009.7 |
| 20260501223134 | 60 | 256 | 0.0 | 4.0 | 0.00 | 0.00 | 0.00 | 37 | 1009.8 |
| 20260501223001 | 60 | 272 | 0.0 | 4.0 | 0.00 | 0.00 | 0.00 | 38 | 1009.8 |
| 20260501221539 | 61 | 232 | 0.0 | 4.0 | 0.00 | 0.00 | 0.00 | 38 | 1009.7 |
| 20260501220047 | 62 | 297 | 1.0 | 4.0 | 0.00 | 0.00 | 0.00 | 35 | 1009.6 |
| 20260501214530 | 64 | 216 | 0.0 | 3.0 | 0.00 | 0.00 | 0.00 | 34 | 1009.6 |
| 20260501213001 | 64 | 250 | 1.0 | 8.0 | 0.00 | 0.00 | 0.00 | 34 | 1009.4 |
| 20260501211539 | 64 | 217 | 0.0 | 6.0 | 0.00 | 0.00 | 0.00 | 34 | 1009.3 |
| 20260501210046 | 65 | 238 | 1.0 | 7.0 | 0.00 | 0.00 | 0.00 | 34 | 1009.2 |
| 20260501204527 | 64 | 213 | 1.0 | 5.0 | 0.00 | 0.00 | 0.00 | 34 | 1009.3 |
| 20260501203003 | 64 | 218 | 2.0 | 7.0 | 0.00 | 0.00 | 0.00 | 34 | 1009.1 |